TimeHST,TemperatureF,Dew PointF,Humidity,Sea Level PressureIn,VisibilityMPH,Wind Direction,Wind SpeedMPH,Gust SpeedMPH,PrecipitationIn,Events,Conditions,WindDirDegrees,DateUTC
12:00 AM,69.8,66.2,88,30.09,4.0,NE,16.1,-,0.02,Rain,Light Rain,40,2013-01-03 10:00:00
12:53 AM,70.0,66.0,87,30.07,9.0,NE,17.3,-,0.02,Rain,Light Rain,40,2013-01-03 10:53:00
1:53 AM,70.0,64.9,84,30.06,10.0,NE,18.4,-,0.01,,Overcast,40,2013-01-03 11:53:00
2:04 AM,69.8,64.4,83,30.06,10.0,NE,15.0,-,N/A,,Overcast,40,2013-01-03 12:04:00
2:25 AM,69.8,66.2,88,30.06,10.0,NNE,16.1,-,N/A,,Overcast,20,2013-01-03 12:25:00
2:53 AM,70.0,64.0,81,30.05,10.0,NE,18.4,-,N/A,,Overcast,40,2013-01-03 12:53:00
3:53 AM,71.1,64.0,78,30.04,10.0,NNE,20.7,-,N/A,,Overcast,30,2013-01-03 13:53:00
4:22 AM,69.8,64.4,83,30.04,10.0,NE,18.4,-,0.00,,Overcast,40,2013-01-03 14:22:00
4:53 AM,70.0,64.0,81,30.04,10.0,NE,21.9,28.8,0.00,,Overcast,40,2013-01-03 14:53:00
5:18 AM,69.8,64.4,83,30.05,7.0,NE,20.7,25.3,0.00,Rain,Light Rain,50,2013-01-03 15:18:00
5:53 AM,66.9,64.0,90,30.05,8.0,NNW,15.0,-,0.01,Rain,Light Rain,340,2013-01-03 15:53:00
6:53 AM,68.0,64.9,90,30.06,10.0,North,10.4,-,0.01,,Overcast,10,2013-01-03 16:53:00
7:14 AM,69.8,64.4,83,30.07,10.0,NNE,19.6,-,N/A,,Overcast,30,2013-01-03 17:14:00
7:53 AM,71.1,63.0,75,30.07,10.0,NNE,19.6,-,N/A,,Overcast,30,2013-01-03 17:53:00
8:53 AM,72.0,63.0,73,30.09,10.0,NNE,18.4,-,N/A,,Overcast,30,2013-01-03 18:53:00
9:05 AM,73.4,64.4,73,30.10,10.0,NE,19.6,-,N/A,,Overcast,40,2013-01-03 19:05:00
9:18 AM,71.6,62.6,73,30.11,10.0,NE,20.7,-,N/A,,Overcast,40,2013-01-03 19:18:00
9:53 AM,73.0,63.0,71,30.11,10.0,NE,19.6,-,N/A,,Overcast,40,2013-01-03 19:53:00
10:53 AM,73.0,62.1,68,30.12,10.0,NNE,20.7,-,N/A,,Overcast,30,2013-01-03 20:53:00
11:24 AM,73.4,62.6,69,30.11,10.0,NNE,19.6,-,N/A,,Overcast,30,2013-01-03 21:24:00
11:50 AM,73.4,62.6,69,30.10,10.0,NNE,18.4,-,N/A,,Overcast,20,2013-01-03 21:50:00
11:53 AM,73.0,62.1,68,30.10,10.0,NNE,17.3,-,N/A,,Overcast,30,2013-01-03 21:53:00
12:14 PM,73.4,62.6,69,30.10,10.0,NE,17.3,-,N/A,,Overcast,40,2013-01-03 22:14:00
12:53 PM,73.9,62.1,66,30.07,10.0,NNE,17.3,24.2,N/A,,Overcast,20,2013-01-03 22:53:00
1:53 PM,73.0,63.0,71,30.05,10.0,NNE,19.6,24.2,N/A,,Overcast,20,2013-01-03 23:53:00
2:13 PM,73.4,62.6,69,30.05,10.0,NNE,20.7,-,N/A,,Overcast,20,2013-01-04 00:13:00
2:46 PM,71.6,62.6,73,30.05,8.0,NNE,20.7,29.9,N/A,,Overcast,30,2013-01-04 00:46:00
2:53 PM,71.1,63.0,75,30.05,8.0,NNE,19.6,-,0.00,Rain,Light Rain,20,2013-01-04 00:53:00
3:53 PM,70.0,63.0,78,30.06,7.0,North,17.3,24.2,0.00,Rain,Light Rain,10,2013-01-04 01:53:00
4:53 PM,71.1,62.1,73,30.06,8.0,NE,19.6,-,0.00,,Overcast,40,2013-01-04 02:53:00
5:53 PM,70.0,63.0,78,30.08,7.0,NE,15.0,26.5,0.00,Rain,Light Rain,40,2013-01-04 03:53:00
6:53 PM,72.0,63.0,73,30.09,10.0,NE,23.0,-,0.00,,Overcast,40,2013-01-04 04:53:00
7:53 PM,72.0,63.0,73,30.12,10.0,NE,19.6,-,N/A,,Overcast,50,2013-01-04 05:53:00
8:53 PM,71.1,64.0,78,30.13,6.0,NE,24.2,29.9,0.01,Rain,Light Rain,40,2013-01-04 06:53:00
9:03 PM,69.8,64.4,83,30.13,10.0,NE,18.4,-,0.00,,Overcast,40,2013-01-04 07:03:00
9:53 PM,71.1,64.0,78,30.13,10.0,NE,23.0,-,0.00,,Overcast,50,2013-01-04 07:53:00
10:53 PM,72.0,63.0,73,30.12,10.0,NE,24.2,-,0.00,,Overcast,40,2013-01-04 08:53:00
11:53 PM,71.1,64.9,81,30.11,10.0,NE,20.7,24.2,0.00,,Overcast,50,2013-01-04 09:53:00